OPS 4682 DEB, 38422

Orbit data source: Space-Track

OPS 4682 DEB, 38422 is space debris in LEO originally from a launch on Sat, 03 Apr 1965 UTC launched from the Air Force Western Test Range (AFWTR). Debris objects in space refer to the collection of defunct objects orbiting the Earth. Examples of debris include non-operational satellites, rocket bodies, and fragments generated from explosions, collisions, or faulty payload assembly.

Loading next visibility...
Identifier
38422, 1965-027EB
Orbit
LEO
Country
Flag of USUS
Related business
Manufacturer
Unknown
Mission
Spacecraft
Bus & Motor
Unknown
Mass
Unknown
Launch date (UTC)
1965-04-03 (61 years ago)
Launch vehicle
Unknown
Launch site
Air Force Western Test Range (AFWTR)
Object type
Payload
Rocket body
Debris
Shape & HBR
Unknown shape, 0.1 m
Radar Cross Section
Medium (>0.1 m² and <1 m²)

Expand to show TLE details & history
Last TLE update: 14 hours ago

TLE from 14 hours ago
0 OPS 4682 DEB
1 38422U 65027EB  26150.59354928 -.00000145  00000-0 -52375-3 0  9995
2 38422  90.2676  23.9192 0035654 106.0226 254.4826 12.97638501660844
Epoch: 2026-05-30T14:14Z
TLE epoch observation values (Epoch: 2026-05-30T14:14:42.657Z)
Latitude
-0.00006°
Longitude
-77.86588°
Altitude
1,281.621 km
Speed
7.212 km/s
True Right ascension
01h 35m 40s
True Declination
0° 00' 00"
Sunlit
Object was in daylight at epoch
Visualization orbit readout
Latitude
Unknown
Longitude
Unknown
Altitude
Unknown
Speed
Unknown
Apparent Right ascension
Unknown
Apparent Declination
Unknown
Sunlit
N/A
Visualization observer readout
Local Sidereal Time
13:39:35
Azimuth
Unknown
Elevation
Unknown
Doppler factor
Unknown
Orbital elements
Apogee altitude
1,295.747 km
Perigee altitude
1,241.22 km
Semi-major axis
7,646.621 km
Eccentricity
0.00357
Inclination
90.2676°
RAAN
23.9192°
Arg. of periapsis
106.0226°
True anomaly
254.0894°
Mean anomaly
254.4826°
Eccentric anomaly
254.28595°
Mean motion
3.24593 °/min
Orbital period
110.91 mins
BSTAR
-0.00052375
Loading maneuver chart data...
Computing Atmospheric mass density...
Loading historical data...
Loading historical data...
Loading historical data...
Loading historical data...
Loading historical data...
Loading historical data...
Loading historical data...

Documentation

Showing up to 5 results
|